Vertical_Velocity
-0 0 -6 8 12 0 2 2 -3 -1 4 -0 -2 -1 0 -9 -2 1 6 7 3 -3 -4 0 1 1 1 4 5 5 11 6 8 2 0 4 1 -0 -1 -2 -0 -0 -1
0 -0 -2 2 5 1 -1 2 -3 -2 3 2 -1 0 3 -2 0 6 1 1 3 1 1 3 5 7 4 1 2 2 -3 2 2 6 2 3 2 1 3 1 2 3 -1
2 -2 -3 0 1 0 -1 2 -2 -3 1 3 0 -1 -2 -1 -2 12 9 2 0 5 -0 2 4 -2 9 9 -1 1 -1 -1 2 1 1 2 2 -2 -0 -3 -6 -3 -1
1 1 3 5 -0 0 -1 1 -1 -3 -0 1 3 2 -2 -4 -1 -1 5 4 -0 5 10 7 4 8 16 16 3 -0 -1 1 -0 1 4 -1 -3 0 1 -3 -2 -0 -1
6 -0 4 1 -1 0 0 1 -1 -1 0 1 0 2 -2 -2 3 -1 0 3 6 -1 21 10 7 7 14 10 6 0 -1 2 -1 1 -2 -3 2 0 -2 1 -1 -1 -3
4 3 2 -1 -1 2 -0 1 -1 0 -0 -2 1 1 4 -4 3 16 6 8 10 5 2 7 2 13 7 7 4 -1 1 -1 -2 -1 1 -0 -3 -0 -2 -2 -2 1 6
1 2 3 -1 -1 2 -1 -0 -1 -1 1 -0 -0 0 0 3 -2 -4 6 0 2 9 11 6 8 9 -2 -3 -1 -2 2 2 -1 -1 -0 1 -0 -1 2 1 0 -2 -2
5 4 -1 1 -1 2 0 0 -3 -0 0 1 -0 -2 -1 -1 1 0 -3 3 -1 2 2 0 -1 7 -3 -2 5 3 -1 -0 -1 1 1 -0 2 2 1 -1 -2 -3 -4
5 3 -0 5 -2 6 1 0 -1 0 0 0 -0 -0 -0 -1 -1 1 -1 -2 -2 2 1 3 -3 0 -1 -3 -1 -1 -2 2 1 1 2 -5 -0 -2 -1 0 2 4 4
6 -4 -2 4 3 8 -2 2 -1 -1 -0 -1 -0 -1 1 1 -1 -0 0 0 0 -0 -4 -1 1 2 1 -1 0 2 2 1 -2 1 1 0 -0 0 3 1 2 6 6
-7 -2 -5 3 1 3 1 -0 -2 -0 -1 -0 1 2 1 -0 0 1 1 1 -1 -1 -0 0 0 1 1 1 -1 -1 3 0 -1 -1 1 1 2 4 1 7 5 -0 1
8 -7 3 1 -1 3 2 2 -2 -0 1 -1 -0 1 2 2 2 -0 0 0 0 1 2 2 2 1 1 3 2 1 2 1 1 0 -2 -3 10 12 7 5 1 -3 -2
40 2 -0 -4 -2 -1 1 4 1 -0 -2 2 1 1 1 2 2 1 1 3 2 2 1 1 -1 -1 0 1 4 3 1 -2 7 8 12 12 0 -1 4 2 0 -1 -0
11 15 0 15 -1 0 -0 1 2 7 3 0 1 1 1 1 1 -1 -0 -1 -1 2 1 -1 0 0 3 -0 -2 -1 4 5 1 -1 1 2 -2 -1 -3 -1 -1 2 1
-6 17 27 21 11 0 0 2 3 5 1 2 -1 -1 -2 -1 1 1 0 1 -1 -1 -1 0 -0 -1 -2 -1 2 4 3 -2 -3 1 -2 -3 -3 -1 -3 1 0 -2 -6
10 -5 16 15 14 22 32 -2 3 2 6 12 11 4 4 -2 7 1 2 3 1 1 -2 0 -0 2 2 -1 -3 -4 -4 -5 -3 -2 -3 -1 -1 -1 2 -1 -3 -0 2
6 21 -4 18 12 8 2 3 18 2 17 8 11 13 9 15 22 17 3 6 2 1 -2 1 -2 -1 1 -1 -1 0 0 0 -0 1 -1 -1 -0 -1 -2 -3 -1 -1 -1
3 3 2 12 11 5 7 14 6 10 1 -8 -3 0 14 6 2 -1 -1 6 -1 2 1 -0 2 -2 0 2 1 1 -2 -1 -1 -2 -1 -1 -1 -3 -1 -0 -3 -3 -3
-1 -6 -12 11 5 9 4 27 15 3 18 5 -9 28 8 3 8 4 3 1 1 3 1 2 1 2 2 -1 -1 2 -3 -2 -1 -1 -1 -1 0 -1 -1 -2 -3 -3 -5
5 -6 7 1 -1 1 2 -8 -7 -4 -0 -1 -1 2 4 1 3 0 -1 -1 -0 1 1 1 2 -0 -0 -0 1 -1 -2 -1 -1 -1 -1 -2 -1 -1 -3 -2 -4 -3 -2
3 6 2 3 3 1 3 2 1 3 5 1 1 1 3 -0 -1 0 0 -1 -0 -2 -1 1 2 -0 -5 -2 -1 -1 -0 -1 -1 -1 -1 -1 -2 -2 -1 -3 -2 -2 -3
1 -0 1 3 5 4 3 1 2 2 4 1 3 -0 -1 -2 -2 0 1 0 1 3 -0 -1 -1 1 -5 2 -0 -1 -0 1 -1 -2 -1 -3 -4 -2 -1 -0 -2 -2 -2
1 0 2 1 0 1 1 1 3 1 1 -0 1 1 5 -1 1 3 3 2 3 -1 -1 0 -0 3 0 -1 -2 -1 -1 -1 -1 -2 -2 -2 -2 -1 -0 -2 -2 -2 -3
0 1 2 2 0 1 0 3 1 0 0 0 2 2 4 3 3 2 2 1 1 0 4 -7 4 1 -1 -2 -2 -1 -1 -0 0 0 -1 -1 -1 -2 -1 -2 -2 -2 -3
-2 0 4 2 0 3 2 3 4 3 2 0 3 2 2 1 2 1 2 3 -0 4 -4 0 1 -1 -1 -0 -1 0 0 -1 -2 -1 -1 -0 -1 -2 -2 -2 -2 -3 -1
-0 1 -0 1 0 0 1 -1 1 0 1 1 2 2 1 -1 0 0 2 3 1 -1 -2 2 -2 -0 -0 -0 -1 -1 -1 -1 -1 -1 -1 -1 -2 -3 -2 -2 -3 -3 -2
Height
5645 5649 5652 5657 5661 5664 5668 5670 5670 5668 5667 5665 5665 5665 5667 5669 5672 5676 5681 5687 5692 5696 5700 5705 5710 5713 5716 5719 5720 5721 5723 5724 5723 5722 5722 5722 5722 5721 5721 5720 5719 5718 5717
5637 5641 5644 5649 5653 5657 5661 5664 5664 5663 5662 5662 5662 5662 5663 5664 5667 5671 5676 5681 5687 5691 5695 5699 5704 5707 5709 5710 5711 5712 5712 5714 5715 5713 5713 5714 5714 5713 5713 5712 5712 5711 5709
5627 5631 5635 5641 5645 5650 5654 5658 5659 5657 5657 5657 5657 5657 5657 5656 5657 5661 5667 5672 5678 5683 5688 5692 5696 5698 5701 5702 5703 5703 5704 5705 5705 5704 5706 5706 5705 5705 5705 5704 5703 5701 5699
5617 5622 5627 5633 5638 5642 5648 5651 5653 5652 5651 5651 5652 5652 5651 5647 5648 5651 5657 5664 5670 5675 5679 5683 5686 5690 5693 5695 5695 5696 5696 5697 5697 5698 5698 5698 5697 5697 5696 5695 5692 5690 5688
5606 5611 5618 5625 5630 5636 5641 5645 5646 5647 5647 5646 5646 5647 5645 5640 5640 5645 5649 5655 5661 5666 5670 5674 5677 5680 5683 5684 5685 5687 5688 5689 5691 5691 5691 5690 5689 5687 5685 5683 5681 5678 5675
5596 5602 5610 5617 5622 5629 5634 5637 5639 5641 5642 5643 5641 5642 5641 5638 5635 5639 5642 5646 5652 5656 5661 5664 5667 5672 5675 5677 5678 5680 5682 5683 5683 5683 5682 5681 5680 5677 5674 5671 5669 5665 5661
5586 5594 5602 5608 5614 5621 5626 5630 5632 5634 5635 5637 5637 5638 5639 5638 5637 5636 5638 5641 5645 5649 5652 5656 5661 5665 5668 5671 5672 5672 5673 5674 5675 5674 5673 5670 5668 5666 5663 5660 5656 5653 5649
5578 5585 5592 5599 5606 5613 5618 5623 5625 5628 5630 5632 5633 5634 5635 5636 5637 5637 5638 5639 5642 5644 5648 5652 5656 5659 5662 5664 5665 5665 5666 5665 5664 5664 5663 5661 5658 5655 5652 5649 5645 5640 5635
5570 5577 5585 5592 5598 5605 5611 5615 5618 5621 5624 5626 5628 5629 5631 5633 5633 5634 5636 5638 5640 5642 5645 5648 5651 5652 5654 5656 5657 5657 5656 5656 5655 5653 5652 5649 5646 5643 5640 5635 5630 5625 5619
5561 5568 5577 5584 5590 5595 5601 5606 5611 5614 5617 5620 5622 5624 5625 5627 5628 5630 5632 5633 5636 5638 5641 5642 5645 5646 5647 5648 5648 5648 5647 5647 5646 5644 5641 5638 5635 5631 5626 5621 5614 5608 5602
5553 5561 5569 5576 5582 5586 5592 5599 5603 5607 5610 5613 5615 5617 5619 5621 5623 5624 5626 5627 5629 5631 5633 5635 5636 5638 5639 5640 5640 5639 5638 5637 5634 5631 5628 5626 5621 5616 5610 5605 5597 5591 5584
5546 5553 5560 5568 5574 5579 5584 5589 5595 5599 5603 5606 5609 5611 5613 5614 5616 5619 5620 5622 5622 5624 5626 5627 5629 5629 5630 5629 5629 5628 5627 5625 5622 5619 5615 5610 5605 5601 5595 5588 5580 5574 5567
5535 5547 5554 5559 5565 5572 5576 5581 5585 5589 5594 5598 5601 5603 5605 5607 5609 5611 5614 5615 5617 5618 5618 5619 5619 5620 5621 5620 5619 5618 5615 5611 5608 5604 5599 5594 5589 5582 5577 5571 5564 5557 5550
5533 5538 5545 5550 5554 5562 5568 5573 5576 5579 5586 5589 5592 5594 5596 5598 5600 5603 5605 5607 5608 5609 5609 5609 5609 5608 5608 5607 5605 5603 5600 5597 5592 5588 5583 5578 5573 5567 5561 5554 5547 5541 5535
5526 5529 5536 5542 5546 5550 5558 5563 5568 5572 5577 5580 5582 5585 5587 5589 5591 5593 5595 5596 5597 5597 5597 5597 5597 5596 5595 5593 5591 5588 5584 5581 5578 5573 5568 5562 5557 5551 5544 5539 5533 5526 5518
5516 5522 5529 5534 5542 5545 5548 5551 5558 5563 5567 5570 5573 5575 5578 5579 5582 5582 5584 5586 5586 5585 5586 5586 5585 5583 5582 5580 5577 5573 5570 5566 5561 5557 5552 5546 5541 5536 5530 5525 5519 5513 5504
5510 5514 5521 5527 5532 5537 5542 5546 5549 5553 5559 5561 5564 5566 5569 5571 5571 5571 5573 5574 5574 5574 5574 5573 5571 5571 5569 5567 5563 5560 5556 5551 5547 5542 5537 5532 5528 5523 5516 5510 5503 5497 5488
5504 5510 5514 5518 5522 5528 5534 5537 5540 5544 5549 5551 5554 5556 5558 5559 5559 5560 5562 5562 5561 5560 5560 5559 5558 5556 5554 5551 5548 5545 5542 5537 5533 5529 5525 5520 5514 5508 5501 5494 5487 5479 5471
5499 5503 5507 5510 5515 5520 5525 5530 5534 5537 5539 5540 5545 5546 5547 5548 5549 5549 5549 5549 5548 5547 5546 5546 5544 5542 5540 5537 5534 5530 5527 5523 5520 5516 5511 5505 5499 5492 5486 5479 5471 5463 5454
5496 5499 5502 5505 5509 5513 5516 5519 5524 5527 5531 5532 5534 5536 5536 5537 5538 5538 5538 5537 5536 5535 5534 5532 5531 5529 5526 5523 5520 5516 5513 5510 5506 5501 5496 5491 5485 5479 5471 5463 5454 5446 5437
5490 5493 5495 5498 5502 5505 5507 5510 5513 5516 5519 5521 5522 5524 5525 5526 5526 5526 5525 5525 5524 5524 5522 5520 5518 5516 5514 5512 5508 5505 5501 5497 5492 5487 5482 5476 5470 5462 5455 5446 5438 5429 5420
5484 5486 5488 5490 5492 5494 5496 5499 5502 5505 5507 5510 5511 5512 5513 5513 5514 5513 5513 5512 5512 5511 5510 5508 5507 5505 5502 5498 5494 5490 5487 5483 5478 5473 5467 5460 5453 5446 5438 5430 5421 5412 5403
5478 5481 5482 5484 5486 5488 5490 5492 5494 5496 5497 5499 5501 5501 5502 5502 5502 5501 5501 5500 5499 5499 5498 5498 5497 5492 5487 5485 5481 5477 5474 5469 5463 5458 5450 5442 5436 5429 5422 5414 5405 5395 5385
5472 5474 5476 5477 5479 5480 5482 5483 5485 5486 5488 5489 5490 5490 5490 5491 5491 5491 5491 5490 5490 5489 5488 5486 5480 5477 5475 5471 5468 5463 5459 5453 5447 5441 5434 5427 5421 5413 5405 5397 5387 5377 5367
5465 5466 5467 5469 5470 5472 5474 5475 5476 5478 5479 5480 5480 5481 5481 5481 5482 5482 5481 5480 5479 5478 5474 5470 5467 5464 5461 5457 5452 5448 5442 5436 5430 5425 5418 5412 5404 5396 5388 5379 5369 5361 5352
5461 5461 5463 5464 5464 5466 5467 5468 5469 5470 5470 5471 5472 5472 5472 5473 5472 5472 5470 5469 5466 5462 5459 5456 5454 5450 5445 5441 5437 5432 5426 5421 5415 5409 5402 5395 5387 5378 5369 5361 5352 5345 5339